Date String (YYYY-MM-DD hh:mm:ss) UTC,Instrument flags,absolute air pressure of the measurement (hPa),sample flow rate (lpm),inlet stack bypass flow (lpm),air temperature of the measurement (°C),ambient temperature measured by the external sensor (°C),aerosol sample conditioner tube jacket temperature (°C),OPC LED temperature (°C),internal box temperature (°C),relative humidity of the measurement (%),span deviation,mass concentration of particles derived from Lorenz-Mie calculation of OPC scattering (μg/m³),mass concentration of particles derived from Lorenz-Mie calculation of OPC scattering (μg/m³),mass concentration of particles derived from Lorenz-Mie calculation of OPC scattering (μg/m³)
DateTimeUTC,F1_M11,P_M11,Q1_M11,Q2_M11,T1_M11,T2_M11,T3_M11,T4_M11,T5_M11,U1_M11,ZSPAN_M11,X0_M11,X2_M11,X1_M11
2023-08-23 22:00:00,SystemResetWarning,0833.4,5.00,000.00,027.4,025.7,000.0,035.6,029.2,26.6,0001.7,0016.48,0008.58,0007.25
2023-08-23 22:01:00,SystemResetWarning,0833.4,4.97,000.00,027.4,024.6,000.0,035.5,029.0,26.6,0001.6,0016.09,0008.59,0007.25
2023-08-23 22:02:00,SystemResetWarning,0833.4,5.01,000.00,027.3,023.8,000.0,035.4,028.8,27.2,0001.5,0016.15,0008.56,0007.26
2023-08-23 22:03:00,SystemResetWarning,0833.4,5.01,000.00,027.2,024.0,000.0,035.4,028.8,27.2,0001.3,0016.17,0008.55,0007.24
2023-08-23 22:04:00,SystemResetWarning,0833.5,4.99,000.00,027.2,024.4,000.0,035.5,028.8,27.3,0001.4,0016.27,0008.62,0007.25
2023-08-23 22:05:00,SystemResetWarning,0833.4,5.00,000.00,027.2,024.9,000.0,035.5,029.0,27.3,0001.5,0017.12,0008.68,0007.28
2023-08-23 22:06:00,SystemResetWarning,0833.4,5.00,000.00,027.3,025.4,000.0,035.5,029.1,27.6,0001.1,0016.93,0008.68,0007.29
2023-08-23 22:07:00,SystemResetWarning,0833.4,5.00,000.00,027.4,025.8,000.0,035.6,029.2,27.5,0000.5,0017.26,0008.70,0007.30
2023-08-23 22:08:00,SystemResetWarning,0833.4,5.00,000.00,027.4,026.0,000.0,035.6,029.3,27.1,0000.5,0017.87,0008.68,0007.33
2023-08-23 22:09:00,SystemResetWarning,0833.4,4.98,000.00,027.4,024.9,000.0,035.5,029.0,26.9,0000.4,0016.54,0008.70,0007.36
2023-08-23 22:10:00,SystemResetWarning,0833.3,5.01,000.00,027.3,024.0,000.0,035.5,028.8,27.0,0000.6,0016.26,0008.69,0007.38
2023-08-23 22:11:00,SystemResetWarning,0833.3,5.01,000.00,027.3,024.3,000.0,035.4,028.8,27.1,0000.4,0016.32,0008.64,0007.41
2023-08-23 22:12:00,SystemResetWarning,0833.3,5.00,000.00,027.3,024.6,000.0,035.5,028.9,26.8,0000.5,0016.51,0008.64,0007.43
2023-08-23 22:13:00,SystemResetWarning,0833.2,5.00,000.00,027.3,025.1,000.0,035.5,029.0,27.0,0000.6,0016.66,0008.68,0007.46
2023-08-23 22:14:00,SystemResetWarning,0833.2,5.00,000.00,027.3,025.6,000.0,035.6,029.2,26.5,0000.9,0016.53,0008.67,0007.49
2023-08-23 22:15:00,SystemResetWarning,0833.3,5.00,000.00,027.4,026.0,000.0,035.6,029.3,26.4,0001.0,0017.41,0008.68,0007.51
2023-08-23 22:16:00,SystemResetWarning,0833.2,4.98,000.00,027.5,025.5,000.0,035.6,029.2,26.7,0000.7,0016.92,0008.71,0007.52
2023-08-23 22:17:00,SystemResetWarning,0833.2,5.00,000.00,027.4,024.2,000.0,035.5,028.9,26.8,0001.0,0016.91,0008.78,0007.55
2023-08-23 22:18:00,SystemResetWarning,0833.2,5.01,000.00,027.3,024.1,000.0,035.4,028.8,26.8,0001.3,0016.56,0008.78,0007.55
2023-08-23 22:19:00,SystemResetWarning,0833.2,5.00,000.00,027.3,024.4,000.0,035.5,028.9,26.8,0001.5,0016.00,0008.78,0007.55
2023-08-23 22:20:00,SystemResetWarning,0833.2,5.00,000.00,027.3,024.8,000.0,035.5,029.0,26.5,0001.8,0017.71,0008.77,0007.54
2023-08-23 22:21:00,SystemResetWarning,0833.2,5.00,000.00,027.3,025.3,000.0,035.6,029.1,26.9,0001.6,0017.95,0008.79,0007.55
2023-08-23 22:22:00,SystemResetWarning,0833.1,5.00,000.00,027.4,025.8,000.0,035.6,029.3,26.2,0002.0,0018.05,0008.83,0007.56
2023-08-23 22:23:00,SystemResetWarning,0833.2,4.99,000.00,027.5,026.0,000.0,035.6,029.3,26.0,0002.2,0019.06,0008.87,0007.57
2023-08-23 22:24:00,SystemResetWarning,0833.2,4.99,000.00,027.4,024.8,000.0,035.6,029.0,26.4,0002.3,0021.59,0008.86,0007.59
2023-08-23 22:25:00,SystemResetWarning,0833.1,5.01,000.00,027.3,024.0,000.0,035.5,028.8,26.6,0002.5,0023.03,0008.89,0007.61
2023-08-23 22:26:00,SystemResetWarning,0833.0,5.01,000.00,027.3,024.3,000.0,035.5,028.8,26.3,0002.3,0023.11,0008.90,0007.61
2023-08-23 22:27:00,SystemResetWarning,0833.0,5.00,000.00,027.3,024.7,000.0,035.5,028.9,26.3,0002.3,0023.20,0008.88,0007.62
2023-08-23 22:28:00,SystemResetWarning,0833.3,5.00,000.00,027.3,025.1,000.0,035.6,029.0,26.2,0002.2,0023.12,0008.89,0007.63
2023-08-23 22:29:00,SystemResetWarning,0833.1,5.00,000.00,027.4,025.6,000.0,035.6,029.2,26.5,0002.3,0023.14,0008.89,0007.64
2023-08-23 22:30:00,SystemResetWarning,0833.3,5.01,000.00,027.4,026.0,000.0,035.6,029.3,26.2,0002.1,0023.27,0008.90,0007.66
2023-08-23 22:31:00,SystemResetWarning,0833.0,4.99,000.00,027.5,025.4,000.0,035.6,029.2,26.2,0001.8,0022.19,0008.91,0007.66
2023-08-23 22:32:00,SystemResetWarning,0833.2,4.99,000.00,027.4,024.2,000.0,035.5,028.9,26.3,0001.6,0021.38,0008.89,0007.66
2023-08-23 22:33:00,SystemResetWarning,0833.5,5.02,000.00,027.3,024.1,000.0,035.5,028.8,25.9,0001.3,0021.52,0008.85,0007.65
2023-08-23 22:34:00,SystemResetWarning,0833.4,5.01,000.00,027.3,024.5,000.0,035.5,028.9,25.8,0001.1,0020.63,0008.85,0007.63
2023-08-23 22:35:00,SystemResetWarning,0833.4,5.00,000.00,027.3,025.0,000.0,035.6,029.0,25.9,0001.3,0019.26,0008.84,0007.60
2023-08-23 22:36:00,SystemResetWarning,0833.2,5.00,000.00,027.4,025.4,000.0,035.6,029.2,25.9,0001.0,0017.03,0008.83,0007.57
2023-08-23 22:37:00,SystemResetWarning,0833.0,5.00,000.00,027.4,025.9,000.0,035.6,029.3,26.0,0001.1,0016.22,0008.76,0007.54
2023-08-23 22:38:00,SystemResetWarning,0833.0,5.00,000.00,027.5,026.0,000.0,035.6,029.3,26.1,0001.1,0015.58,0008.73,0007.51
2023-08-23 22:39:00,SystemResetWarning,0833.4,4.98,000.00,027.5,024.7,000.0,035.6,029.1,26.0,0001.2,0016.53,0008.70,0007.45
2023-08-23 22:40:00,SystemResetWarning,0833.2,5.02,000.00,027.4,024.0,000.0,035.5,028.9,26.3,0001.0,0016.57,0008.67,0007.43
2023-08-23 22:41:00,SystemResetWarning,0833.1,5.01,000.00,027.4,024.4,000.0,035.5,028.9,26.5,0001.0,0017.09,0008.67,0007.40
2023-08-23 22:42:00,SystemResetWarning,0833.0,5.00,000.00,027.3,024.8,000.0,035.6,029.0,26.4,0001.3,0017.60,0008.69,0007.38
2023-08-23 22:43:00,SystemResetWarning,0833.0,5.00,000.00,027.4,025.2,000.0,035.6,029.1,26.3,0001.5,0017.99,0008.67,0007.37
2023-08-23 22:44:00,SystemResetWarning,0833.0,5.00,000.00,027.4,025.7,000.0,035.6,029.3,26.4,0001.5,0018.65,0008.65,0007.33
2023-08-23 22:45:00,SystemResetWarning,0833.0,5.01,000.00,027.5,026.1,000.0,035.7,029.4,26.7,0001.4,0019.18,0008.60,0007.32
2023-08-23 22:46:00,SystemResetWarning,0833.1,4.98,000.00,027.5,025.4,000.0,035.6,029.2,27.7,0001.3,0019.30,0008.61,0007.32
2023-08-23 22:47:00,SystemResetWarning,0833.3,5.00,000.00,027.4,024.1,000.0,035.5,028.9,28.0,0001.0,0019.35,0008.65,0007.33
2023-08-23 22:48:00,SystemResetWarning,0833.4,5.01,000.00,027.4,024.1,000.0,035.5,028.9,28.5,0001.0,0019.91,0008.70,0007.34
2023-08-23 22:49:00,SystemResetWarning,0833.3,5.00,000.00,027.4,024.5,000.0,035.5,028.9,29.2,0001.0,0020.38,0008.73,0007.34
2023-08-23 22:50:00,SystemResetWarning,0833.3,4.99,000.00,027.4,024.9,000.0,035.6,029.1,29.0,0001.1,0020.73,0008.75,0007.35
2023-08-23 22:51:00,SystemResetWarning,0833.2,5.00,000.00,027.4,025.4,000.0,035.6,029.2,28.6,0001.1,0021.16,0008.72,0007.35
2023-08-23 22:52:00,SystemResetWarning,0833.0,5.01,000.00,027.5,025.8,000.0,035.7,029.3,27.8,0000.9,0021.82,0008.73,0007.37
2023-08-23 22:53:00,SystemResetWarning,0833.1,5.00,000.00,027.5,025.9,000.0,035.7,029.3,27.7,0000.7,0021.75,0008.68,0007.38
2023-08-23 22:54:00,SystemResetWarning,0833.1,4.98,000.00,027.5,024.6,000.0,035.6,029.0,28.0,0000.5,0022.03,0008.70,0007.39
2023-08-23 22:55:00,SystemResetWarning,0833.2,5.01,000.00,027.4,024.0,000.0,035.5,028.9,28.4,0000.5,0021.39,0008.75,0007.40
2023-08-23 22:56:00,SystemResetWarning,0833.1,5.01,000.00,027.4,024.3,000.0,035.5,028.9,28.6,0000.7,0021.04,0008.75,0007.40
2023-08-23 22:57:00,SystemResetWarning,0833.0,5.00,000.00,027.4,024.7,000.0,035.6,029.0,28.4,0000.9,0020.23,0008.73,0007.41
2023-08-23 22:58:00,SystemResetWarning,0833.2,5.00,000.00,027.4,025.2,000.0,035.6,029.1,28.4,0001.0,0019.78,0008.66,0007.40
2023-08-23 22:59:00,SystemResetWarning,0832.9,5.00,000.00,027.4,025.6,000.0,035.7,029.3,27.7,0000.8,0019.16,0008.62,0007.40
